Location: Red Deer
(52.2681°N, 113.8112°W)
Time: 08:19:47
(UTC-07:00)

Envisat - Visible Passes

Search period start: 03 December 2022 00:00
Search period end: 13 December 2022 00:00
Orbit: 763 x 765 km, 98.2° (Epoch: 03 December)

Date Brightness Start Highest point End Pass type
(mag) Time Alt. Az. Time Alt. Az. Time Alt. Az.
03 Dec 5.3 04:02:00 10° NNE 04:04:04 20° NE 04:04:04 20° NE visible
03 Dec 3.6 05:40:43 10° N 05:44:15 39° NNW 05:44:15 39° NNW visible
03 Dec 4.8 07:22:05 10° NNW 07:23:33 11° NW 07:24:26 11° WNW visible
03 Dec 5.6 17:02:23 10° SW 17:06:18 22° W 17:10:15 10° NW visible
04 Dec 6.0 03:26:08 10° NE 03:26:29 11° NE 03:26:29 11° NE visible
04 Dec 4.0 05:03:36 10° NNE 05:06:39 37° NNE 05:06:39 37° NNE visible
04 Dec 4.3 06:43:35 10° N 06:46:49 19° NW 06:46:49 19° NW visible
05 Dec 4.8 04:26:44 10° NNE 04:29:04 25° NE 04:29:04 25° NE visible
05 Dec 3.9 06:05:59 10° N 06:09:14 29° NNW 06:09:14 29° NNW visible
05 Dec 5.9 17:29:04 10° WSW 17:31:41 14° W 17:34:19 10° NW visible
06 Dec 5.6 03:50:17 10° NE 03:51:30 15° NE 03:51:30 15° NE visible
06 Dec 3.9 05:28:42 10° N 05:31:40 35° N 05:31:40 35° N visible
06 Dec 4.6 07:09:25 10° NNW 07:11:48 13° NW 07:11:50 13° NW visible
07 Dec 4.5 04:51:39 10° NNE 04:54:05 28° NNE 04:54:05 28° NNE visible
07 Dec 4.3 06:31:24 10° N 06:34:16 21° NW 06:34:16 21° NW visible
08 Dec 5.3 04:14:53 10° NNE 04:16:31 19° NE 04:16:31 19° NE visible
08 Dec 4.1 05:53:54 10° N 05:56:42 29° NNW 05:56:42 29° NNW visible
08 Dec 5.8 17:16:13 10° SW 17:19:33 17° W 17:22:55 10° NW visible
09 Dec 5.9 03:38:39 10° NE 03:38:58 11° NE 03:38:58 11° NE visible
09 Dec 4.3 05:16:42 10° NNE 05:19:08 29° N 05:19:08 29° N visible
09 Dec 4.6 06:57:02 10° NNW 06:59:19 15° NW 06:59:19 15° NW visible
10 Dec 4.9 04:39:44 10° NNE 04:41:35 22° NNE 04:41:35 22° NNE visible
10 Dec 4.3 06:19:14 10° N 06:21:46 22° NNW 06:21:46 22° NNW visible
10 Dec 6.2 17:43:55 10° W 17:45:00 11° W 17:46:04 10° WNW visible
11 Dec 5.6 04:03:05 10° NNE 04:04:03 15° NE 04:04:03 15° NE visible
11 Dec 4.3 05:41:51 10° N 05:44:13 26° N 05:44:13 26° N visible
11 Dec 4.8 07:23:24 10° NNW 07:24:24 11° NW 07:24:24 11° NW visible
11 Dec 5.6 17:03:36 10° SW 17:07:26 21° W 17:11:19 10° NW visible
12 Dec 4.7 05:04:43 10° NNE 05:06:41 24° NNE 05:06:41 24° NNE visible
12 Dec 4.6 06:44:45 10° NNW 06:46:52 17° NW 06:46:52 17° NW visible
